Location: Abundant Grace Fellowship
(35.0349°N, 90.0924°W)
Time: 20:31:59
(UTC+00:00)

Cosmos 1269 Rocket - Pass Details

Date: 18 January 2026
Orbit: 769 x 775 km, 74.1° (Epoch: 10 February)

Event Time Altitude Azimuth Distance (km) Brightness Sun altitude
Rises 11:05:51 0° 198° (SSW) 3,233 7.1 -24.5°
Reaches altitude 10° 11:08:13 10° 199° (SSW) 2,310 6.4 -24.1°
Maximum altitude 11:13:28 82° 286° (WNW) 786 3.9 -23.0°
Drops below altitude 10° 11:18:47 10° 15° (NNE) 2,327 6.5 -21.9°
Sets 11:21:10 0° 17° (NNE) 3,257 7.3 -21.5°
